Change the Weather History Date:

Tuesday, January 1, 2013

  Actual Average Record
Temperature  
Mean Temperature 26 °F -  
Max Temperature 35 °F 32 °F 48 °F (2011)
Min Temperature 14 °F 15 °F -6 °F (1997)
Degree Days  
Heating Degree Days 39    
Moisture  
Dew Point 13 °F    
Average Humidity 55    
Maximum Humidity 67    
Minimum Humidity 46    
Precipitation  
Precipitation 0.00 in - - ()
Sea Level Pressure  
Sea Level Pressure 29.83 in    
Wind  
Wind Speed 10 mph (West)    
Max Wind Speed 18 mph    
Max Gust Speed 28 mph    
Visibility 10 miles    
Events      
Averages and records for this station are not official NWS values.
T = Trace of Precipitation, MM = Missing Value Source: NWS Daily Summary

Daily Weather History Graph

Daily Weather History Graph

Search for Another Location

Airport or City:

Trip Planner

Search our weather history database for the weather conditions in past years. The results will help you decide how hot, cold, wet, or windy it might be!

Date:

Astronomy

Jan. 01, 2013 Rise Set
Actual Time 7:19 AM EST 4:26 PM EST
Civil Twilight 6:47 AM EST 4:58 PM EST
Nautical Twilight 6:11 AM EST 5:34 PM EST
Astronomical Twilight 5:37 AM EST 6:08 PM EST
Moon 9:01 PM EST (1/1) 9:24 AM EST (1/1)
Length of Visible Light 10h 11m
Length of Day
9h 07m
Waning Gibbous, 83% of the Moon is Illuminated
Jan 1
Waning Gibbous
Jan 4
Last Quarter
Jan 11
New
Jan 18
First Quarter
Jan 26
Full

Hourly Weather History & Observations

Time (EST) Temp. Windchill Dew Point Humidity Pressure Visibility Wind Dir Wind Speed Gust Speed Precip Events Conditions
12:52 AM 30.9 °F 24.3 °F 21.0 °F 67% 29.75 in 10.0 mi SSW 6.9 mph - N/A   Overcast
1:52 AM 32.0 °F 24.8 °F 21.9 °F 66% 29.75 in 10.0 mi SSW 8.1 mph - N/A   Overcast
2:52 AM 34.0 °F 28.8 °F 23.0 °F 64% 29.74 in 10.0 mi West 5.8 mph - N/A   Overcast
3:52 AM 34.0 °F 27.2 °F 23.0 °F 64% 29.72 in 10.0 mi WSW 8.1 mph - N/A   Overcast
4:52 AM 35.1 °F 29.3 °F 23.0 °F 61% 29.74 in 10.0 mi SW 6.9 mph 16.1 mph N/A   Overcast
6:52 AM 34.0 °F 25.0 °F 21.9 °F 61% 29.78 in 10.0 mi West 12.7 mph 20.7 mph N/A   Overcast
7:52 AM 33.1 °F 24.4 °F 18.0 °F 54% 29.80 in 10.0 mi NW 11.5 mph 21.9 mph N/A   Overcast
8:52 AM 32.0 °F 20.5 °F 16.0 °F 52% 29.81 in 10.0 mi WNW 18.4 mph 27.6 mph N/A   Overcast
9:52 AM 32.0 °F 21.2 °F 14.0 °F 48% 29.83 in 10.0 mi West 16.1 mph 25.3 mph N/A   Overcast
10:52 AM 30.9 °F 20.2 °F 12.9 °F 47% 29.83 in 10.0 mi WNW 15.0 mph 26.5 mph N/A   Overcast
11:52 AM 30.0 °F 18.7 °F 12.9 °F 49% 29.82 in 10.0 mi WNW 16.1 mph 27.6 mph N/A   Overcast
12:52 PM 28.9 °F 18.2 °F 12.9 °F 51% 29.80 in 10.0 mi NW 13.8 mph 23.0 mph N/A   Overcast
1:52 PM 28.0 °F 18.6 °F 12.9 °F 53% 29.80 in 10.0 mi WNW 10.4 mph 21.9 mph N/A   Scattered Clouds
2:52 PM 28.0 °F 19.3 °F 10.9 °F 49% 29.80 in 10.0 mi West 9.2 mph 21.9 mph N/A   Scattered Clouds
3:52 PM 27.0 °F 19.5 °F 10.0 °F 49% 29.82 in 10.0 mi Variable 6.9 mph - N/A   Mostly Cloudy
4:52 PM 26.1 °F 15.0 °F 10.9 °F 53% 29.84 in 10.0 mi WNW 12.7 mph 26.5 mph N/A   Mostly Cloudy
5:52 PM 25.0 °F 17.1 °F 12.0 °F 58% 29.86 in 10.0 mi West 6.9 mph - N/A   Overcast
6:52 PM 23.0 °F 11.1 °F 10.0 °F 58% 29.88 in 10.0 mi West 12.7 mph 18.4 mph N/A   Clear
7:52 PM 21.0 °F 10.6 °F 7.0 °F 55% 29.91 in 10.0 mi WNW 9.2 mph - N/A   Clear
8:52 PM 19.9 °F 8.6 °F 3.9 °F 50% 29.91 in 10.0 mi WNW 10.4 mph - N/A   Clear
9:52 PM 19.0 °F 7.5 °F 1.0 °F 46% 29.92 in 10.0 mi West 10.4 mph - N/A   Clear
10:52 PM 17.1 °F 5.8 °F 1.0 °F 50% 29.94 in 10.0 mi WNW 9.2 mph - N/A   Clear
11:52 PM 14.0 °F 6.5 °F -0.0 °F 54% 29.94 in 10.0 mi NW 4.6 mph - N/A   Clear